Location: *
(50.9167°S, 179.4000°W)
Time: 20:33:56
(UTC+00:00)

NOSS 3-1 (A) - Pass Details

Date: 03 March 2024
Orbit: 667 x 1544 km, 63.4° (Epoch: 16 April)

Event Time Altitude Azimuth Distance (km) Brightness Sun altitude
Rises 13:34:26 0° 228° (SW) 4,159 7.0 -29.7°
Reaches altitude 10° 13:37:33 10° 223° (SW) 3,052 6.3 -29.5°
Maximum altitude 13:44:34 56° 145° (SE) 1,140 4.0 -29.0°
Drops below altitude 10° 13:50:10 10° 66° (ENE) 2,449 5.6 -28.6°
Sets 13:52:25 0° 61° (ENE) 3,283 6.3 -28.5°
